AirNav   Air Wisconsin pilot careers
 
 1046 users online  

8FD3 Blackwater Airfield
Munson, Florida, USA

GOING TO MUNSON?


FAA INFORMATION EFFECTIVE 29 MARCH 2018

Location

FAA Identifier: 8FD3
Lat/Long: 30-52-39.6660N / 086-51-15.8560W
30-52.661100N / 086-51.264267W
30.8776850 / -86.8544044
(estimated)
Elevation: 200 ft. / 61 m (estimated)
Variation: 01E (1985)
From city: 1 mile NE of MUNSON, FL
Time zone: UTC -5 (UTC -6 during Standard Time)
Zip code: 32570

Airport Operations

Airport use: Private use. Permission required prior to landing
Activation date: 03/1988
Control tower: no
ARTCC: JACKSONVILLE CENTER
FSS: GAINESVILLE FLIGHT SERVICE STATION
Attendance: CONTINUOUS
Wind indicator: yes
Segmented circle: no

Airport Communications

WX AWOS-3PT at 12J (15 nm NW): 119.325 (251-809-2987)
WX ASOS at CEW (18 nm E): 119.275 (850-682-1237)

Nearby radio navigation aids

VOR radial/distance  VOR name  Freq  Var
CEWr286/9.5CRESTVIEW VORTAC115.9003E
NUNr045/(34.8)SAUFLEY VOR108.8001E

 
NDB name  Hdg/Dist  Freq  Var  ID
PICKENS034/31.332602WPKZ .--. -.- --..
JUDD225/35.026402WJUY .--- ..- -.--

Airport Services

Runway Information

Runway 18/36

Dimensions: 4000 x 100 ft. / 1219 x 30 m
Surface: turf
RUNWAY 18  RUNWAY 36
Traffic pattern: leftleft
Displaced threshold: no1500 ft.

Airport Ownership and Management from official FAA records

Ownership: Publicly-owned
Owner: DEPT OF AGRI/DIV OF FORESTRY
3266 CAPITAL CIR S W
TALLAHASSEE, FL 32310
Phone (850) 681-5980
Manager: BRIAN MCKEE
3266 CAPITAL CIR SW
TALLAHASSEE, FL 32310
Phone (850) 681-5980

Airport Operational Statistics

Aircraft based on the field: 1
Single engine airplanes: 1
    

Instrument Procedures

There are no published instrument procedures at 8FD3.

Some nearby airports with instrument procedures:

KNSE - Whiting Field Naval Air Station North (13 nm SW)
KNDZ - Whiting Field Naval Air Station South (14 nm SW)
12J - Brewton Municipal Airport (15 nm NW)
2R4 - Peter Prince Field Airport (16 nm SW)
KCEW - Bob Sikes Airport (18 nm E)
 
Loc | Ops | Rwys | IFR | FBO | Links
Com | Nav | Svcs | Stats | Notes

AirNav Hotels Sweepstakes
 
Area around 8FD3 (Blackwater Airfield)
 
Road maps at: MapQuest Bing Google
 
Aerial photo
WARNING: Photo may not be current or correct
Aerial photo of 8FD3 (Blackwater Airfield)
Photo by Drew Hatch
Photo taken 16-Mar-2013
looking north.

Do you have a better or more recent aerial photo of Blackwater Airfield that you would like to share? If so, please send us your photo.

 
Sectional chart

 
Airport distance calculator
Flying to Blackwater Airfield? Find the distance to fly.

From to 8FD3

Sunrise and sunset
Times for 21-Apr-2018
 Local
(UTC-5)
 Zulu
(UTC)
Morning civil twilight05:4910:49
Sunrise06:1411:14
Sunset19:1800:18
Evening civil twilight19:4300:43

Current date and time
Zulu (UTC)  21-Apr-2018 16:34:48
Local (UTC-5)  21-Apr-2018 11:34:48
 
METAR
KNSE 
13nm SW 
211620Z AUTO VRB05KT 10SM SCT027 BKN055 23/16 A3019 RMK AO2 T02280161 $
KNDZ 
14nm SW 
211556Z AUTO 12006KT 10SM CLR 22/15 A3020 RMK AO2 SLP211 T02170150 $
2R4 
16nm SW 
SuperAWOS
211555Z AUTO VRB06KT 22/16 A3018
KCEW 
19nm E 
211616Z AUTO 08006KT 10SM BKN023 OVC034 21/13 A3022 RMK AO2 T02110128
KEGI 
23nm SE 
211556Z AUTO 09006G15KT 10SM BKN023 BKN150 20/13 A3020 RMK AO2 SLP227 T02000125 $
TAF
KNSE 
13nm SW 
2115/2215 10010KT 9999 SCT030 BKN250 QNH3012INS TEMPO 2115/2118 BKN025 BECMG 2118/2120 14011KT 9999 SCT015 BKN030 QNH3007INS BECMG 2204/2206 12012KT 8000 BR VCSH BKN015 OVC040 QNH3009INS AUTOMATED SENSOR METWATCH 2123 TIL 2217 T24/2120Z T19/2211Z FN00180
NOTAMs
Click for the latest NOTAMs
NOTAMs are issued by the DoD/FAA and will open in a separate window not controlled by AirNav.

 

 
 

Would you like to see your business listed on this page?

 If your business provides an interesting product or service to pilots, flight crews, aircraft, or users of the Blackwater Airfield, you should consider listing it here.  To start the listing process, click on the button below
 
Add a business
 

Other Pages about Blackwater Airfield

Update a link
 
Copyright © AirNav, LLC. All rights reserved. Privacy Policy  Contact